PA0HHN Weather Reports


time (UTC)temp
C
wind
direction
speed
KPH
gust
KPH
rain 1hr
cm
rain 24hr
cm
rain mn
cm
humidity
%
barometer
mb
20260506023002 10 247 0.0 0.0 0.00 0.00 0.00 89 1002.3
20260506021501 10 171 1.6 0.0 0.00 0.00 0.00 89 1002.6
20260506010000 10 219 1.6 0.0 0.00 0.00 0.00 87 1002.9
20260506004502 10 260 1.6 0.0 0.00 0.00 0.00 87 1003.2
20260506003002 10 244 0.0 0.0 0.00 0.00 0.00 87 1003.2
20260506001500 10 265 1.6 0.0 0.00 0.00 0.00 87 1003.3
20260506000000 10 266 0.0 0.0 0.00 0.00 0.00 87 1003.4
20260505234500 10 221 1.6 0.0 0.00 0.00 0.00 85 1003.5
20260505233002 10 266 0.0 0.0 0.00 0.00 0.00 84 1003.6
20260505231501 10 237 1.6 0.0 0.00 0.00 0.00 84 1003.7
20260505230000 10 264 0.0 0.0 0.00 0.00 0.00 83 1003.7
20260505224500 10 255 1.6 0.0 0.00 0.00 0.00 83 1003.8
20260505223002 10 232 1.6 0.0 0.00 0.00 0.00 84 1004.0
20260505221500 10 234 0.0 0.0 0.00 0.00 0.00 84 1004.0
20260505220000 10 207 1.6 0.0 0.00 0.00 0.00 84 1003.8
20260505214502 10 250 0.0 0.0 0.00 0.00 0.00 85 1003.9
20260505213001 10 244 1.6 0.0 0.00 0.00 0.00 84 1004.3
20260505211502 10 248 0.0 0.0 0.00 0.00 0.00 84 1004.4
20260505210002 10 216 1.6 0.0 0.00 0.00 0.00 85 1004.3
20260505204500 10 237 0.0 0.0 0.00 0.00 0.00 85 1004.4
20260505203002 10 235 0.0 0.0 0.00 0.00 0.00 85 1004.6
20260505201500 10 255 1.6 0.0 0.00 0.00 0.00 85 1004.6
20260505200000 10 192 1.6 0.0 0.00 0.00 0.00 85 1004.3
20260505194500 10 271 3.2 0.0 0.00 0.00 0.00 85 1004.6
20260505193000 10 56 0.0 0.0 0.00 0.00 0.00 85 1004.5
20260505191502 11 266 0.0 0.0 0.00 0.00 0.00 86 1004.2
20260505190003 11 12 3.2 0.0 0.00 0.00 0.00 86 1004.1
20260505181502 12 333 1.6 0.0 0.00 0.00 0.00 84 1004.0
20260505180000 12 232 3.2 0.0 0.00 0.00 0.00 83 1004.0
20260505173000 12 221 1.6 0.0 0.00 0.00 0.00 81 1004.0
20260505171500 12 225 1.6 0.0 0.00 0.00 0.00 79 1004.2
20260505170000 12 238 0.0 0.0 0.00 0.00 0.00 78 1004.0
20260505164501 12 226 0.0 0.0 0.00 0.00 0.00 79 1004.1
20260505163002 12 261 1.6 0.0 0.00 0.00 0.00 80 1004.1
20260505161502 12 250 1.6 0.0 0.00 0.00 0.00 79 1004.2
20260505153002 12 249 1.6 0.0 0.00 0.00 0.00 81 1004.3
20260505151501 12 294 3.2 0.0 0.00 0.00 0.00 82 1004.6
20260505124500 12 259 1.6 0.0 0.00 0.00 0.00 81 1005.4
20260505123002 12 247 0.0 0.0 0.00 0.00 0.00 83 1005.6
20260505121502 12 247 0.0 0.0 0.00 0.00 0.00 84 1005.5
20260505120001 11 48 3.2 0.0 0.00 0.00 0.00 85 1005.7
20260505114502 11 223 0.0 0.0 0.00 0.00 0.00 86 1005.6
20260505113000 11 14 3.2 0.0 0.00 0.00 0.00 85 1005.6
20260505111502 11 253 0.0 0.0 0.00 0.00 0.00 86 1005.6
20260505101500 11 253 0.0 0.0 0.00 0.00 0.00 84 1005.9
20260505094502 11 261 0.0 0.0 0.00 0.00 0.00 84 1006.3
20260505093000 11 30 1.6 0.0 0.00 0.00 0.00 84 1006.1
20260505084502 10 224 1.6 0.0 0.00 0.00 0.00 88 1006.3
20260505083003 8 316 1.6 0.0 0.00 0.00 0.00 91 1006.4
20260505081500 8 271 0.0 0.0 0.00 0.00 0.00 93 1006.6
20260505080000 8 274 1.6 0.0 0.00 0.00 0.00 94 1006.7
20260505074500 8 149 0.0 0.0 0.00 0.00 0.00 95 1006.9
20260505073002 7 315 0.0 0.0 0.00 0.00 0.00 96 1006.6
20260505071500 7 65 1.6 0.0 0.00 0.00 0.00 96 1006.7
20260505070000 7 238 0.0 0.0 0.00 0.00 0.00 97 1006.7
20260505064502 7 288 0.0 0.0 0.00 0.00 0.00 97 1006.4
20260505063001 7 45 3.2 0.0 0.00 0.00 0.00 97 1006.6
20260505061500 7 254 0.0 0.0 0.00 0.00 0.00 96 1006.5
20260505040000 7 50 1.6 0.0 0.00 0.00 0.00 92 1006.5
20260505024502 8 254 0.0 0.0 0.00 0.00 0.00 92 1006.6